Tracking 28520 objects as of 1-Mar-2024
HD Live streaming from Space Station
objects crossing your sky now

DELTA 1 DEB

Track DELTA 1 DEB now!
10-day predictions


NORAD ID: 7086
Int'l Code: 1973-086CE
Perigee: 1,499.7 km
Apogee: 1,521.1 km
Inclination: 102.0 °
Period: 116.1 minutes
Semi major axis: 7881 km
RCS: 0.0523 m2 (small)
Launch date: November 6, 1973
Source: United States (US)
Launch site: AIR FORCE WESTERN TEST RANGE (AFWTR)

Note: This is SATELLITE DEBRIS
Your satellite tracking list
Your tracking list is empty




NASA's NSSDC Master Catalog

Two Line Element Set (TLE):
1  7086U 73086CE  24060.86238465  .00000025  00000-0  51997-3 0  9990
2  7086 102.0345  26.9475 0013565 324.8144  92.5801 12.40784247277265
Source of the keplerian elements: AFSPC